sat.trackr.live / text

‹ back to catalog

STARLINK-32924

NORAD 63092 · 2025-037R

PAYLOAD ACTIVE UNKNOWN

§ Identity

Operator
Country
US
Launch date
2025-02-23
Launch site
AFWTR
Launch vehicle
Mass (kg)
RCS (m²)

Purposes: comms

External: N2YO · Heavens-Above · Gunter

§ Orbital elements

Epoch: 2026-05-25T02:54:51.503616Z

Period
96.11 min
Inclination
70.0001°
Eccentricity
0.0004086
Mean motion
14.98333708 rev/d
Perigee alt
569.2 km
Apogee alt
574.9 km
Semi-major
6,950.2 km
B*
1.7593e-4
RAAN
161.6300°
Arg perigee
266.0230°
Mean anomaly
94.0462°
Rev number
7,005

§ Raw data

STARLINK-329241 63092U 25037R   26145.12142944  .00002007  00000+0  17593-3 0  99982 63092  70.0001 161.6300 0004086 266.0230  94.0462 14.98333708 70057

JSON: /api/v1/satellites/63092 · /tle

For live sub-satellite position, see the globe view (requires WebGL).

§ Visibility from observer

Set your observer location to see the next 7 days of passes ≥ 10°. The values pass through the URL so the page stays shareable.

No JS? Fill the form by hand. The geolocation button needs JavaScript.